Location: Newark
(1.4667°N, 173.0333°E)
Time: 07:23:23
(UTC+00:00)

Hubble Space Telescope - Visible Passes

Search period start: 18 October 2019 00:00
Search period end: 28 October 2019 00:00
Orbit: 536 x 540 km, 28.5° (Epoch: 17 October)

Date Brightness Start Highest point End Pass type
(mag) Time Alt. Az. Time Alt. Az. Time Alt. Az.
18 Oct 1.2 07:20:58 10° WNW 07:25:02 58° SSW 07:27:18 24° SE visible
18 Oct 3.4 17:36:11 10° SSW 17:39:01 18° SSE 17:41:51 10° ESE visible
19 Oct 1.9 07:10:34 10° W 07:14:28 40° SSW 07:18:11 11° SE visible
19 Oct 2.9 17:25:05 10° SSW 17:28:29 24° SSE 17:31:52 10° E visible
20 Oct 2.6 07:00:18 10° W 07:03:54 28° SSW 07:07:31 10° SSE visible
20 Oct 2.3 17:14:11 10° SW 17:17:57 33° SSE 17:21:41 10° E visible
21 Oct 3.1 06:50:12 10° W 06:53:22 21° SSW 06:56:31 10° SSE visible
21 Oct 1.6 17:04:12 15° SW 17:07:22 48° SSE 17:11:21 10° ENE visible
22 Oct 3.5 06:40:21 10° WSW 06:42:50 15° SSW 06:45:18 10° S visible
22 Oct 0.9 16:55:05 33° SW 16:56:49 71° SSE 17:00:54 10° ENE visible
23 Oct 0.5 16:45:57 74° W 16:46:14 80° NNW 16:50:21 10° ENE visible
24 Oct 1.6 16:36:46 40° NNE 16:36:46 40° NNE 16:39:42 10° NE visible
25 Oct 2.8 16:27:31 19° NNE 16:27:31 19° NNE 16:28:57 10° NE visible
